Home > Weather > Milwaukee > Past weeks

Flag for USA Weather for the Past 2 Weeks in Milwaukee, Wisconsin, USA

Now
85 °F

Sunny.


Feels Like: 82 °F
Forecast: 44 / 77 °F
Wind: 14 mph from West

Location: General Mitchell International Airport

Current Time: May 6, 2016 at 6:15:44 PM

Latest Report: May 6, 2016 at 4:52 PM


Visibility: 10 mi

Pressure: 29.76 "Hg

Humidity: 23%

Dew Point: 43 °F

Location of MilwaukeeLocation

Historic Weather in Milwaukee — Graph

°F

Milwaukee Temperature Yesterday

Maximum temperature yesterday: 54 °F (at 1:52 PM)
Minimum temperature yesterday: 41 °F (at 3:52 AM)
Average temperature yesterday: 48 °F

High & Low Weather Summary for the Past Weeks

 TemperatureHumidityPressure
High85 °F (May 6, 3:52 PM)100% (Apr 22, 2:52 AM)30.26 "Hg (Apr 22, 2:52 AM)
Low37 °F (Apr 24, 5:52 AM)22% (May 6, 3:52 PM)29.55 "Hg (Apr 25, 6:52 PM)
Average47 °F74%29.97 "Hg
* Reported Apr 21 4:52 PM — May 6 4:52 PM, Milwaukee, Weather by CustomWeather, © 2016

Note: Actual official high and low records may vary slightly from our data, if they occured in-between our weather recording intervals... More about our weather records

Advertising

Milwaukee Weather History for the Previous 24 Hours

Scroll right to see more
 ConditionsComfort  
Time TempWeatherWind HumidityBarometerVisibility
4:52 PM
Fri, May 6
85 °FSunny.14 mph23%29.76 "Hg10 mi
3:52 PM85 °FPassing clouds.10 mph22%29.78 "Hg10 mi
2:52 PM82 °FPassing clouds.10 mph28%29.81 "Hg10 mi
1:52 PM80 °FPassing clouds.9 mph30%29.83 "Hg10 mi
12:52 PM76 °FPassing clouds.8 mph31%29.86 "Hg10 mi
11:52 AM74 °FPassing clouds.9 mph31%29.90 "Hg10 mi
10:52 AM72 °FScattered clouds.10 mph31%29.92 "Hg10 mi
9:52 AM67 °FScattered clouds.9 mph35%29.94 "Hg10 mi
8:52 AM63 °FPartly sunny.9 mph41%29.96 "Hg10 mi
7:52 AM59 °FPartly sunny.9 mph44%29.96 "Hg10 mi
6:52 AM52 °FBroken clouds.3 mph69%29.96 "Hg10 mi
5:52 AM53 °FLight rain. Partly cloudy.No wind61%29.96 "Hg10 mi
4:52 AM52 °FPassing clouds.3 mph61%29.95 "Hg10 mi
3:52 AM49 °FPassing clouds.5 mph71%29.94 "Hg10 mi
2:52 AM49 °FPartly cloudy.3 mph66%29.95 "Hg10 mi
1:52 AM48 °FPassing clouds.7 mph63%29.96 "Hg10 mi
12:52 AM46 °FClear.6 mph71%29.98 "Hg10 mi
11:52 PM
Thu, May 5
47 °FPassing clouds.3 mph69%29.98 "Hg10 mi
10:52 PM47 °FPassing clouds.5 mph69%29.98 "Hg10 mi
9:52 PM49 °FPassing clouds.3 mph61%29.99 "Hg10 mi
8:52 PM49 °FPassing clouds.5 mph61%29.98 "Hg10 mi
7:52 PM50 °FPartly sunny.No wind59%29.98 "Hg10 mi
6:52 PM51 °FPartly sunny.3 mph59%29.98 "Hg10 mi
Weather by CustomWeather, © 2016

See weather overviewHow to use our weather pages